This demonstration page uses our WeatherBlox Daily Observations layout. Learn more.

38.89511, -77.03637

Hourly Observations for September 6, 2019

Temp ( °F °C ) Dew Point ( °F °C ) Humidity (%) Winds ( mph kmh ) Pressure ( in mb ) Visibility ( mi km ) Precip ( " mm )
12:52 am 00:52 Cloudy 73 22.8 64 17.8 74 74 NE 10 17 29.94 1014 10 16.09344 0 0
1:52 am 01:52 Cloudy 72 22.2 63 17.2 73 73 NE 10 17 29.91 1013 10 16.09344 0 0
2:52 am 02:52 Cloudy 71 21.7 62 16.7 73 73 NNE 13 20 29.91 1013 10 16.09344 0 0
3:52 am 03:52 Cloudy 71 21.7 59 15 66 66 NNE 16 26 29.88 1012 10 16.09344 0 0
4:52 am 04:52 Cloudy 71 21.7 59 15 66 66 NNE 16 26 29.88 1012 10 16.09344 0 0
5:52 am 05:52 Cloudy 70 21.1 59 15 68 68 NNE 16 26 29.85 1011 10 16.09344 0 0
6:52 am 06:52 Cloudy 70 21.1 57 13.9 64 64 N 15 24 29.85 1011 10 16.09344 0 0
7:52 am 07:52 Cloudy 70 21.1 58 14.4 66 66 NNE 18 30 29.83 1010 10 16.09344 0 0
8:52 am 08:52 Cloudy 70 21.1 58 14.4 66 66 NNE 18 30 29.83 1010 10 16.09344 0 0
9:52 am 09:52 Cloudy 70 21.1 58 14.4 66 66 N 16 26 29.83 1010 10 16.09344 0 0
10:52 am 10:52 Cloudy 71 21.7 59 15 66 66 NNE 17 28 29.83 1010 10 16.09344 0 0
11:52 am 11:52 Cloudy 71 21.7 59 15 66 66 N 16 26 29.8 1009 10 16.09344 0 0
12:52 pm 12:52 Cloudy 72 22.2 59 15 64 64 N 17 28 29.8 1009 10 16.09344 0 0
1:52 pm 13:52 Cloudy 73 22.8 60 15.6 64 64 N 17 28 29.77 1008 10 16.09344 0 0
2:52 pm 14:52 Cloudy 72 22.2 60 15.6 66 66 N 17 28 29.77 1008 10 16.09344 0 0
3:52 pm 15:52 Mostly Cloudy 75 23.9 61 16.1 62 62 N 18 30 29.74 1007 10 16.09344 0 0
4:52 pm 16:52 Mostly Cloudy 75 23.9 61 16.1 62 62 NNE 14 22 29.77 1008 10 16.09344 0 0
5:02 pm 17:02 Cloudy 76 24.4 61 16.1 60 60 N 12 19 29.77 1008 10 16.09344 0 0
5:16 pm 17:16 Mostly Cloudy 76 24.4 61 16.1 60 60 NNE 8 13 29.77 1008 10 16.09344 0 0
5:52 pm 17:52 Mostly Cloudy 76 24.4 61 16.1 60 60 NNE 12 19 29.77 1008 10 16.09344 0 0
6:18 pm 18:18 Partly Cloudy 75 23.9 62 16.7 64 64 ENE 12 19 29.77 1008 10 16.09344 0 0
6:52 pm 18:52 Partly Cloudy 74 23.3 60 15.6 62 62 NE 13 20 29.77 1008 10 16.09344 0 0
7:52 pm 19:52 Mostly Clear 71 21.7 60 15.6 68 68 NE 10 17 29.77 1008 10 16.09344 0 0
8:52 pm 20:52 Partly Cloudy 70 21.1 60 15.6 71 71 ENE 10 17 29.8 1009 10 16.09344 0 0
9:52 pm 21:52 Clear 68 20 59 15 73 73 N 6 9 29.8 1009 10 16.09344 0 0
10:52 pm 22:52 Mostly Clear 68 20 58 14.4 70 70 NNE 5 7 29.8 1009 10 16.09344 0 0
11:52 pm 23:52 Mostly Clear 68 20 58 14.4 70 70 NNW 3 6 29.83 1010 10 16.09344 0 0

Powered by AerisWeather